FW9022 Weather Reports


Display with metric or nautical units.
time (UTC)temp
F
wind
direction
speed
MPH
gust
MPH
rain 1hr
in
rain 24hr
in
rain mn
in
humidity
%
barometer
mb
20260903192828 93 160 2.0 8.0 0.00 0.00 0.00 55 1019.7
20260903191823 93 259 1.0 6.0 0.00 0.00 0.00 56 1019.7
20260903190846 92 168 1.0 7.0 0.00 0.00 0.00 55 1019.8
20260903185829 92 118 2.0 4.0 0.00 0.00 0.00 55 1020.2
20260903184822 91 113 0.0 3.0 0.00 0.00 0.00 55 1020.2
20260903183837 92 214 0.0 7.0 0.00 0.00 0.00 55 1020.3
20260903182834 92 122 2.0 5.0 0.00 0.00 0.00 55 1020.3
20260903181848 92 140 0.0 8.0 0.00 0.00 0.00 54 1020.3
20260903180832 91 18 0.0 2.0 0.00 0.00 0.00 55 1020.5
20260903175831 91 18 1.0 4.0 0.00 0.00 0.00 56 1020.7
20260903174849 91 242 1.0 5.0 0.00 0.00 0.00 54 1020.7
20260903173821 91 104 0.0 4.0 0.00 0.00 0.00 53 1020.8
20260903172836 91 142 2.0 6.0 0.00 0.00 0.00 55 1021.2
20260903171829 91 165 3.0 6.0 0.00 0.00 0.00 51 1021.2
20260903170838 91 192 0.0 4.0 0.00 0.00 0.00 54 1021.3
20260903165837 90 60 1.0 3.0 0.00 0.00 0.00 56 1021.3
20260903164852 90 60 1.0 2.0 0.00 0.00 0.00 57 1021.3
20260903163821 90 26 2.0 4.0 0.00 0.00 0.00 56 1021.4
20260903162819 89 126 0.0 2.0 0.00 0.00 0.00 61 1021.6
20260903161833 89 126 1.0 2.0 0.00 0.00 0.00 63 1021.6
20260903160858 89 126 0.0 2.0 0.00 0.00 0.00 63 1021.8
20260903155821 89 133 0.0 1.0 0.00 0.00 0.00 64 1021.7
20260903154834 89 133 0.0 1.0 0.00 0.00 0.00 66 1021.7
20260903153829 89 133 1.0 2.0 0.00 0.00 0.00 67 1021.9
20260903152822 87 99 0.0 2.0 0.00 0.00 0.00 68 1022.1
20260903151821 86 99 0.0 1.0 0.00 0.00 0.00 67 1022.1
20260903150846 85 99 0.0 1.0 0.00 0.00 0.00 72 1022.1
20260903145824 84 99 0.0 1.0 0.00 0.00 0.00 73 1021.3
20260903144822 83 99 0.0 1.0 0.00 0.00 0.00 74 1021.3
20260903143836 83 99 0.0 1.0 0.00 0.00 0.00 74 1021.3
20260903142830 82 99 0.0 1.0 0.00 0.00 0.00 76 1021.3
20260903141824 82 99 1.0 2.0 0.00 0.00 0.00 77 1021.3
20260903140913 81 99 0.0 2.0 0.00 0.00 0.00 78 1021.3
20260903135831 80 98 1.0 2.0 0.00 0.00 0.00 81 1021.4
20260903134824 79 82 0.0 0.0 0.00 0.00 0.00 82 1021.4
20260903133838 78 82 0.0 2.0 0.00 0.00 0.00 82 1021.5
20260903132833 77 38 0.0 0.0 0.00 0.00 0.00 86 1021.8
20260903131827 75 38 0.0 1.0 0.00 0.00 0.00 89 1021.8
20260903130852 72 38 0.0 0.0 0.00 0.00 0.00 96 1022.2
20260903125852 70 38 0.0 1.0 0.00 0.00 0.00 98 1022.3
20260903124829 69 60 0.0 1.0 0.00 0.00 0.00 98 1022.3
20260903123820 68 60 0.0 0.0 0.00 0.00 0.00 98 1021.6
20260903122835 67 60 0.0 1.0 0.00 0.00 0.00 98 1021.7
20260903121832 66 60 0.0 0.0 0.00 0.00 0.00 98 1021.7
20260903120837 66 60 0.0 0.0 0.00 0.00 0.00 98 1022.2
20260903115837 66 60 0.0 1.0 0.00 0.00 0.00 98 1021.3
20260903114831 65 60 0.0 0.0 0.00 0.00 0.00 98 1021.3
20260903113829 65 60 0.0 0.0 0.00 0.00 0.00 97 1021.2
20260903112822 65 60 0.0 0.0 0.00 0.00 0.00 98 1020.9
20260903111836 65 60 0.0 0.0 0.00 0.00 0.00 98 1020.9
20260903110845 65 60 0.0 0.0 0.00 0.00 0.00 98 1021.1
20260903105824 65 60 0.0 0.0 0.00 0.00 0.00 98 1021.0
20260903104838 65 60 0.0 0.0 0.00 0.00 0.00 97 1021.0
20260903103831 66 60 0.0 0.0 0.00 0.00 0.00 97 1021.0
20260903102829 66 60 0.0 1.0 0.00 0.00 0.00 97 1020.9
20260903101842 66 60 0.0 0.0 0.00 0.00 0.00 97 1020.9
20260903100846 66 60 0.0 0.0 0.00 0.00 0.00 97 1020.7
20260903095847 66 60 0.0 0.0 0.00 0.00 0.00 97 1020.8
20260903094823 66 60 0.0 0.0 0.00 0.00 0.00 97 1020.8
20260903093837 66 60 0.0 0.0 0.00 0.00 0.00 97 1020.7
20260903092831 66 60 0.0 0.0 0.00 0.00 0.00 97 1020.6
20260903091849 66 60 0.0 0.0 0.00 0.00 0.00 97 1020.6
20260903090852 66 60 0.0 0.0 0.00 0.00 0.00 97 1020.4
20260903085851 67 60 0.0 0.0 0.00 0.00 0.00 97 1020.1
20260903084825 67 60 0.0 0.0 0.00 0.00 0.00 97 1020.1
20260903083843 67 60 0.0 0.0 0.00 0.00 0.00 97 1020.1
20260903082836 67 60 0.0 0.0 0.00 0.00 0.00 97 1020.1
20260903081850 67 60 0.0 0.0 0.00 0.00 0.00 97 1020.1
20260903080833 67 60 0.0 0.0 0.00 0.00 0.00 97 1020.1
20260903075817 67 60 0.0 0.0 0.00 0.00 0.00 97 1020.1
20260903074831 67 60 0.0 0.0 0.00 0.00 0.00 97 1020.1
20260903073825 68 60 0.0 0.0 0.00 0.00 0.00 97 1020.1
20260903072819 68 60 0.0 0.0 0.00 0.00 0.00 97 1020.1
20260903071818 68 60 0.0 0.0 0.00 0.00 0.00 97 1020.1
20260903070841 68 60 0.0 1.0 0.00 0.00 0.00 97 1020.0
20260903065821 68 60 0.0 0.0 0.00 0.00 0.00 96 1020.1
20260903064818 68 60 0.0 0.0 0.00 0.00 0.00 96 1020.1
20260903063833 68 60 0.0 0.0 0.00 0.00 0.00 96 1020.2
20260903062846 68 60 0.0 0.0 0.00 0.00 0.00 96 1020.2
20260903061820 69 60 0.0 0.0 0.00 0.00 0.00 96 1020.2
20260903060848 69 60 0.0 0.0 0.00 0.00 0.00 96 1021.3
20260903055828 69 60 0.0 0.0 0.00 0.00 0.00 96 1021.5
20260903054823 69 60 0.0 0.0 0.00 0.00 0.00 96 1021.5
20260903053820 69 60 0.0 0.0 0.00 0.00 0.00 95 1021.5
20260903052834 69 60 0.0 0.0 0.00 0.00 0.00 95 1021.3
20260903051847 70 60 0.0 0.0 0.00 0.00 0.00 96 1021.3
20260903050850 70 60 0.0 0.0 0.00 0.00 0.00 95 1021.6
20260903045834 70 60 0.0 0.0 0.00 0.00 0.00 95 1021.5
20260903044828 70 60 0.0 0.0 0.00 0.00 0.00 95 1021.5
20260903043821 70 60 0.0 0.0 0.00 0.00 0.00 95 1021.6
20260903042855 70 60 0.0 0.0 0.00 0.00 0.00 95 1021.5
20260903041852 70 60 0.0 0.0 0.00 0.00 0.00 95 1021.5
20260903040836 71 60 0.0 0.0 0.00 0.00 0.00 94 1020.8
20260903035835 71 60 0.0 0.0 0.00 0.00 0.00 94 1020.9
20260903034849 71 60 0.0 0.0 0.00 0.00 0.00 94 1020.9
20260903033826 71 60 0.0 0.0 0.00 0.00 0.00 94 1021.1
20260903032820 72 60 0.0 0.0 0.00 0.00 0.00 94 1022.0
20260903031833 72 60 0.0 0.0 0.00 0.00 0.00 94 1022.0
20260903030838 72 60 0.0 0.0 0.00 0.00 0.00 93 1021.2
20260903025841 72 60 0.0 0.0 0.00 0.00 0.00 93 1021.2
20260903024853 72 60 0.0 0.0 0.00 0.00 0.00 93 1021.2
20260903023826 73 60 0.0 0.0 0.00 0.00 0.00 92 1021.3
20260903022819 73 60 0.0 0.0 0.00 0.00 0.00 92 1021.2
20260903021858 73 60 0.0 1.0 0.00 0.00 0.00 92 1021.2
20260903020842 73 60 0.0 0.0 0.00 0.00 0.00 91 1021.4
20260903015821 74 60 0.0 1.0 0.00 0.00 0.00 91 1021.2
20260903014819 74 60 0.0 0.0 0.00 0.00 0.00 90 1021.2
20260903013852 74 60 0.0 0.0 0.00 0.00 0.00 89 1020.9
20260903012824 75 60 0.0 0.0 0.00 0.00 0.00 89 1020.8
20260903011817 75 60 0.0 0.0 0.00 0.00 0.00 88 1020.8
20260903010845 76 60 0.0 1.0 0.00 0.00 0.00 88 1021.1
20260903005825 76 60 0.0 0.0 0.00 0.00 0.00 87 1021.0
20260903004819 77 60 0.0 0.0 0.00 0.00 0.00 86 1021.0
20260903003834 77 60 0.0 0.0 0.00 0.00 0.00 84 1020.6
20260903002831 78 60 0.0 0.0 0.00 0.00 0.00 82 1020.3
20260903001825 79 60 0.0 0.0 0.00 0.00 0.00 82 1020.3
20260903000850 80 60 1.0 1.0 0.00 0.00 0.00 79 1020.5
20260902235835 81 60 0.0 0.0 0.00 0.00 0.00 77 1020.2
20260902234827 82 60 0.0 1.0 0.00 0.00 0.00 75 1020.2
20260902233821 83 60 0.0 0.0 0.00 0.00 0.00 73 1020.0
20260902232835 85 60 0.0 0.0 0.00 0.00 0.00 69 1019.9
20260902231853 86 60 0.0 0.0 0.00 0.00 0.00 64 1019.9
20260902230836 87 60 0.0 0.0 0.00 0.00 0.00 62 1019.9
20260902225837 87 60 0.0 0.0 0.00 0.00 0.00 59 1019.9
20260902224830 87 60 0.0 0.0 0.00 0.00 0.00 58 1019.9
20260902223827 88 60 0.0 2.0 0.00 0.00 0.00 58 1019.9
20260902222842 88 60 0.0 1.0 0.00 0.00 0.00 57 1019.9
20260902221835 89 60 0.0 2.0 0.00 0.00 0.00 55 1019.9
20260902220842 89 60 0.0 2.0 0.00 0.00 0.00 53 1020.0
20260902215822 90 60 0.0 0.0 0.00 0.00 0.00 53 1019.7
20260902214835 91 60 0.0 1.0 0.00 0.00 0.00 49 1019.7
20260902213830 92 60 0.0 0.0 0.00 0.00 0.00 48 1019.7
20260902212827 91 60 0.0 2.0 0.00 0.00 0.00 48 1019.8
20260902211821 91 40 0.0 3.0 0.00 0.00 0.00 48 1019.8
20260902210846 91 42 1.0 3.0 0.00 0.00 0.00 45 1019.9
20260902205830 92 172 0.0 2.0 0.00 0.00 0.00 43 1019.8
20260902204822 91 32 0.0 2.0 0.00 0.00 0.00 46 1019.8
20260902203836 91 38 1.0 3.0 0.00 0.00 0.00 44 1019.9
20260902202830 91 40 0.0 3.0 0.00 0.00 0.00 46 1020.0
20260902201847 91 161 0.0 4.0 0.00 0.00 0.00 46 1020.0
20260902200850 91 38 1.0 3.0 0.00 0.00 0.00 44 1020.2
20260902195830 91 24 0.0 4.0 0.00 0.00 0.00 46 1020.3
20260902194823 91 119 1.0 2.0 0.00 0.00 0.00 46 1020.3
20260902193842 91 127 0.0 5.0 0.00 0.00 0.00 48 1020.5